Regional Weather Roundup
Issued by NWS Huntsville, AL

Home | Current Version | Previous Version | Text Only | Print | Product List | Glossary On
Versions: 1 2 3 4 5 6 7 8 9 10 11 12 13 14 15 16 17 18 19 20 21 22 23 24 25 26 27 28 29 30 31 32 33 34 35 36 37 38 39 40 41 42 43 44 45 46 47 48 49 50
000
ASUS44 KHUN 220810
RWRHUN

WEATHER ROUNDUP FOR THE TENNESSEE VALLEY
NATIONAL WEATHER SERVICE HUNTSVILLE AL
300 AM CDT MON SEP 22 2014

ALZ001>004-220900-
NORTHWEST ALABAMA

CITY           SKY/WX    TMP DP  RH WIND       PRES   REMARKS
COURTLAND HCN    N/A     64 N/A N/A CALM        N/A
RUSSELLVILLE     N/A     59 N/A N/A MISG        N/A
SHOALS AIRPORT CLEAR     66  50  56 N7        30.08R
SHOALS TVA RES   N/A     64 N/A N/A MISG        N/A
$$

ALZ005>007-016-220900-
NORTH CENTRAL ALABAMA

CITY           SKY/WX    TMP DP  RH WIND       PRES   REMARKS
CULLMAN AG STN   N/A     64 N/A N/A N6          N/A
DECATUR AP     CLEAR     61  52  72 N5        30.06R
HUNTSVILLE AP  CLEAR     67  50  54 N9        30.05R
HUN NWS/UAH      N/A     67  48  51 VRB7        N/A
MERIDIANVILLE  CLEAR     59  50  72 N3        30.06R
VINEMONT AP    FAIR      64  52  66 N5        30.06S
$$

ALZ008>010-220900-
NORTHEAST ALABAMA

CITY           SKY/WX    TMP DP  RH WIND       PRES   REMARKS
ALBERTVILLE    CLEAR     63  57  82 N5        30.03S
FORT PAYNE     CLEAR     59  55  88 CALM      30.03S
SCOTTSBORO AP  CLEAR     59  57  94 CALM      30.04S
SCOTTSBORO HCN   N/A     59 N/A N/A MISG        N/A
VALLEY HEAD      N/A     59 N/A N/A MISG        N/A
$$

TNZ076-096-097-220900-
SOUTHEASTERN MIDDLE TENNESSEE

CITY           SKY/WX    TMP DP  RH WIND       PRES   REMARKS
FAYETTEVILLE   CLEAR     59  48  67 N7        30.06S
TULLAHOMA      CLEAR     55  48  76 CALM      30.08S
WINCHESTER     CLEAR     55  54  94 CALM      30.07S
$$

...SURROUNDING SITES...

CITY           SKY/WX    TMP DP  RH WIND       PRES   REMARKS
ATLANTA        LGT RAIN  71  66  84 NW9       29.98R
ANNISTON       CLOUDY    73  64  73 CALM      30.00R
BIRMINGHAM     CLOUDY    70  61  73 N8        30.03S
CHATTANOOGA    CLEAR     65  51  60 N7        30.04R
CORINTH          N/A     59  52  77 N6        30.08S
DALTON         CLEAR     61  59  94 CALM      30.02R
GADSDEN        CLOUDY    66  55  68 CALM      30.03R
GOLDEN TRNGL   CLOUDY    68  61  77 N5        30.05R
HALEYVILLE     FAIR      62  54  75 N6        30.08R
JACKSON TN     CLEAR     58  51  78 N6        30.11R
LEWISBURG      FAIR      58  51  77 NW5       30.08R
MEMPHIS        CLEAR     67  50  54 NE13      30.11R
MURFREESBORO   FAIR      58  50  75 CALM      30.08R
NASHVILLE      CLEAR     60  51  72 N6        30.09S
OXFORD MS      FAIR      63  52  67 NE5       30.11R
ROME           PTCLDY    65  56  72 NW7       30.00F
SAVANNAH       CLEAR     57  54  88 N5        30.09S
TUPELO         MOCLDY    65  53  65 N8        30.06R
TUSCALOOSA     TSTM      72  67  84 N7        30.02R
$$

...GULF COAST WEATHER...

CITY           SKY/WX    TMP DP  RH WIND       PRES   REMARKS
GULFPORT       CLEAR     71  68  90 CALM      29.99F
PASCAGOULA     CLEAR     65  64  97 CALM      30.00S
MOBILE         CLEAR     69  69 100 NW3       30.01S
GULF SHORES    SUNNY     66  65  99 CALM      29.98F
PENSACOLA      CLEAR     65  65 100 CALM      29.98F FOG
DESTIN         CLEAR     74  71  91 CALM      29.98F
PANAMA CITY    FOG       67  67 100 CALM      29.97F VSB 1/2
APPALACHICOLA  CLEAR     68  64  87 CALM      29.97F
$$



USA.gov is the U.S. government's official web portal to all federal, state and local government web resources and services.